[[{"header":{"parameterUnit":"m.s-1","parameterCategory":1,"la1":30.2991,"la2":30.254,"lo1":-89.0895,"lo2":-89.0444,"dy":0.0017,"dx":0.0017,"nx":28,"ny":28,"refTime":"2025-01-27T03:00:00:Z","depth":0,"parameterNumber":2,"parameterNumberName":"U-component_of_WINDS"},"data":[0,0,0,0,0,0,0,0,0,0,0,0,0,0,0,0,0,0,0,0,0,0,0,0,0,0,0,0,0,0,0,0,0,0,0,0,0,0,0,0,0,0,0,0,0,0,0,0,0,0,0,0,0,0,0,0,0,0,-0.9654,-0.9655,0,-0.9712,-0.9713,-0.9713,-0.9748,-0.9748,-0.9749,-0.9749,-0.9806,-0.9808,-0.9809,0,0,0,0,0,0,0,0,0,0,0,0,0,-0.9572,-0.9573,-0.9654,-0.9655,-0.9656,-0.9712,-0.9713,-0.9713,-0.9748,-0.9748,-0.9749,-0.9749,-0.9806,-0.9808,-0.9809,0,0,0,0,0,0,0,0,0,0,0,0,0,-0.9616,-0.9573,-0.9654,-0.968,-0.9683,-0.9712,-0.9713,-0.9714,-0.9748,-0.9748,-0.9749,-0.9749,-0.9805,-0.9807,-0.9809,-0.9817,0,0,-0.9816,-0.9817,0,0,0,0,0,0,0,0,-0.9614,-0.9619,-0.9675,-0.9678,-0.9681,-0.9723,-0.9705,-0.9748,-0.9748,-0.9723,-0.9749,-0.9749,-0.9778,-0.9783,-0.9793,-0.982,-0.9822,-0.9816,-0.9817,-0.9818,-0.9819,0,0,0,0,0,0,0,-0.961,-0.9617,-0.9677,-0.9676,-0.968,-0.9688,-0.9694,-0.9713,-0.9749,-0.9725,-0.9728,-0.9735,-0.978,-0.9791,-0.9795,-0.9823,-0.9816,-0.9818,-0.9819,-0.982,-0.9857,-0.9857,0,0,0,0,0,0,-0.9604,-0.9614,-0.9675,-0.9679,-0.9648,-0.9689,-0.9696,-0.971,-0.9749,-0.9755,-0.9734,-0.9736,-0.9787,-0.9792,-0.9797,-0.9807,-0.9818,-0.982,-0.9821,-0.9857,-0.9857,-0.9857,0,0,0,0,0,0,-0.9602,-0.9609,-0.9673,-0.9647,-0.9656,-0.969,-0.9705,-0.9711,-0.9721,-0.9755,-0.9762,-0.9739,-0.9788,-0.9794,-0.9811,-0.981,-0.9821,-0.9823,-0.9858,-0.9857,-0.9857,-0.9828,0,0,0,0,0,0,-0.9599,-0.9608,-0.9612,-0.9647,-0.9657,-0.9687,-0.9705,-0.9711,-0.9725,-0.9728,-0.9761,-0.9767,-0.9788,-0.9808,-0.9813,-0.9813,-0.9824,-0.9858,-0.9857,-0.9857,-0.983,-0.9827,-0.9825,0,0,0,0,0,-0.9596,-0.9601,-0.9612,-0.9619,-0.9663,-0.9687,-0.9693,-0.9718,-0.9725,-0.9728,-0.975,-0.9766,-0.9809,-0.981,-0.9816,-0.9816,-0.9858,-0.9858,-0.9857,-0.9831,-0.9827,-0.9825,0,0,0,0,0,0,-0.9565,-0.9607,-0.9619,-0.9636,-0.9658,-0.9693,-0.9699,-0.9714,-0.9734,-0.9736,-0.9765,-0.9772,-0.9787,-0.9803,-0.9803,-0.9824,-0.9835,-0.9836,-0.9813,-0.981,-0.9808,-0.9803,-0.9826,0,0,0,0,0,-0.956,-0.9577,-0.9612,-0.9624,-0.9634,-0.9664,-0.9676,-0.9693,-0.9717,-0.9726,-0.9749,-0.9771,-0.9789,-0.9801,-0.982,-0.9832,-0.9839,-0.9835,-0.9832,-0.983,-0.983,-0.9837,-0.9835,-0.9855,-0.9855,-0.9855,0,0,-0.955,-0.9575,-0.9584,-0.9618,-0.9637,-0.9653,-0.9672,-0.9688,-0.97,-0.9728,-0.9746,-0.9764,-0.979,-0.9805,-0.9812,-0.9819,-0.9826,-0.983,-0.9828,-0.9829,-0.9836,-0.9834,-0.9832,-0.9855,-0.9855,-0.9855,0,0,-0.954,-0.9561,-0.9572,-0.9591,-0.9619,-0.9639,-0.9642,-0.9675,-0.9687,-0.9706,-0.9727,-0.9741,-0.9772,-0.979,-0.9803,-0.9798,-0.9813,-0.9803,-0.979,-0.9796,-0.9795,-0.9793,-0.979,-0.9789,-0.9803,-0.9803,-0.9803,0,-0.9524,-0.955,-0.9576,-0.9591,-0.9605,-0.9631,-0.9642,-0.9659,-0.9691,-0.97,-0.9707,-0.9746,-0.9766,-0.9784,-0.9782,-0.9793,-0.9795,-0.9799,-0.9793,-0.9792,-0.9791,-0.9788,-0.9787,-0.9801,-0.9802,-0.9802,-0.9802,0,-0.9528,-0.9545,-0.9551,-0.9582,-0.9596,-0.9609,-0.9636,-0.9648,-0.9663,-0.9681,-0.9699,-0.9723,-0.9747,-0.9753,-0.9768,-0.9773,-0.9776,-0.9787,-0.9799,-0.9787,-0.9785,-0.9784,-0.9799,-0.98,-0.98,-0.9801,0,0,-0.9501,-0.9545,-0.9547,-0.9561,-0.9593,-0.9607,-0.962,-0.9643,-0.9651,-0.9673,-0.9684,-0.9709,-0.972,-0.9734,-0.9752,-0.9757,-0.9749,-0.9768,-0.9769,-0.9762,-0.9755,-0.9745,-0.9744,-0.976,-0.976,-0.976,-0.9752,0,-0.9495,-0.9521,-0.9544,-0.9561,-0.9576,-0.9601,-0.9612,-0.9632,-0.965,-0.9665,-0.9684,-0.9701,-0.9714,-0.9723,-0.9729,-0.9749,-0.9748,-0.975,-0.9769,-0.977,-0.9761,-0.9743,-0.9734,-0.9725,-0.9752,-0.9752,-0.9752,0,-0.9492,-0.9512,-0.953,-0.956,-0.9567,-0.9577,-0.9599,-0.9613,-0.9637,-0.9649,-0.9664,-0.9682,-0.9696,-0.9706,-0.9725,-0.9726,-0.9735,-0.9746,-0.9747,-0.9749,-0.9759,-0.9744,-0.9723,-0.9722,-0.9751,-0.9751,-0.9751,0,-0.9469,-0.9501,-0.9515,-0.9526,-0.9562,-0.9568,-0.9582,-0.9606,-0.9618,-0.9637,-0.9645,-0.9665,-0.9676,-0.9691,-0.9714,-0.972,-0.973,-0.9743,-0.974,-0.9739,-0.9741,-0.974,-0.972,-0.9748,-0.9748,-0.9748,-0.9748,0,-0.946,-0.947,-0.9505,-0.9514,-0.9525,-0.9551,-0.9562,-0.9579,-0.9599,-0.9611,-0.9633,-0.9644,-0.9673,-0.9687,-0.9705,-0.9717,-0.9722,-0.9731,-0.9736,-0.9729,-0.9728,-0.9735,-0.9736,-0.9747,-0.9747,-0.9748,-0.9748,0,-0.9436,-0.9461,-0.9478,-0.9509,-0.9517,-0.9524,-0.9551,-0.956,-0.9578,-0.9592,-0.9597,-0.9625,-0.9643,-0.9667,-0.9691,-0.9703,-0.9712,-0.972,-0.9704,-0.9707,-0.9702,-0.9702,-0.9686,-0.9685,-0.9713,-0.9713,-0.9713,0,-0.9429,-0.9437,-0.9469,-0.9478,-0.9492,-0.9507,-0.9519,-0.9545,-0.9556,-0.9582,-0.9588,-0.9607,-0.9623,-0.9649,-0.9671,-0.969,-0.9698,-0.9691,-0.9701,-0.9693,-0.9696,-0.9695,-0.9695,-0.9688,-0.9688,-0.9687,-0.9687,0,-0.9412,-0.9423,-0.944,-0.946,-0.9474,-0.9491,-0.9509,-0.9515,-0.9544,-0.9556,-0.9574,-0.9586,-0.9611,-0.9628,-0.965,-0.9664,-0.968,-0.9684,-0.9684,-0.9676,-0.9666,-0.9671,-0.9697,-0.9684,-0.9684,-0.9684,-0.9685,-0.9685,-0.9396,-0.9403,-0.9427,-0.9444,-0.946,-0.9476,-0.9485,-0.9504,-0.9519,-0.9541,-0.9555,-0.9572,-0.9593,-0.9623,-0.9637,-0.965,-0.9656,-0.9657,-0.9657,-0.9656,-0.9653,-0.9665,-0.9654,-0.9654,-0.9654,-0.9654,-0.9654,0,-0.938,-0.9395,-0.9411,-0.9435,-0.9448,-0.9462,-0.9482,-0.9492,-0.9506,-0.9525,-0.954,-0.9559,-0.9576,-0.9599,-0.9618,-0.9624,-0.9631,-0.9627,-0.9627,-0.963,-0.9647,-0.9644,-0.9621,-0.9621,-0.9621,-0.9621,-0.9621,-0.9621,-0.9373,-0.9386,-0.9399,-0.942,-0.9435,-0.9452,-0.9462,-0.9476,-0.9491,-0.9511,-0.9526,-0.9541,-0.9561,-0.9581,-0.9596,-0.9603,-0.9608,-0.9602,-0.961,-0.9626,-0.9629,-0.9632,-0.9629,-0.9603,-0.9603,-0.9592,-0.9591,-0.9591]},{"header":{"parameterUnit":"m.s-1","parameterCategory":1,"la1":30.2991,"la2":30.254,"lo1":-89.0895,"lo2":-89.0444,"dy":0.0017,"dx":0.0017,"nx":28,"ny":28,"refTime":"2025-01-27T03:00:00:Z","depth":0,"parameterNumber":3,"parameterNumberName":"V-component_of_WINDS"},"data":[0,0,0,0,0,0,0,0,0,0,0,0,0,0,0,0,0,0,0,0,0,0,0,0,0,0,0,0,0,0,0,0,0,0,0,0,0,0,0,0,0,0,0,0,0,0,0,0,0,0,0,0,0,0,0,0,0,0,2.4139,2.414,0,2.4228,2.4229,2.423,2.4229,2.4228,2.4227,2.4226,2.4317,2.4321,2.4324,0,0,0,0,0,0,0,0,0,0,0,0,0,2.3969,2.3972,2.4139,2.414,2.4141,2.4228,2.4229,2.4231,2.4229,2.4228,2.4226,2.4225,2.4316,2.432,2.4325,0,0,0,0,0,0,0,0,0,0,0,0,0,2.4049,2.3973,2.4139,2.4151,2.4153,2.4228,2.4229,2.4231,2.423,2.4228,2.4226,2.4224,2.4315,2.432,2.4325,2.4394,0,0,2.4342,2.4344,0,0,0,0,0,0,0,0,2.4045,2.4055,2.4148,2.415,2.4153,2.4216,2.4203,2.4286,2.423,2.42,2.4226,2.4223,2.4285,2.4293,2.4313,2.4398,2.4402,2.4342,2.4345,2.4348,2.4349,0,0,0,0,0,0,0,2.4039,2.4052,2.4174,2.4149,2.4152,2.4153,2.4162,2.4219,2.4252,2.4203,2.4203,2.4214,2.4286,2.4308,2.4316,2.4404,2.4342,2.4347,2.435,2.4352,2.4552,2.4554,0,0,0,0,0,0,2.4031,2.4047,2.4171,2.4177,2.4093,2.4157,2.4168,2.4197,2.4251,2.4258,2.4215,2.4213,2.43,2.4309,2.4319,2.4405,2.4347,2.4352,2.4356,2.455,2.4553,2.4555,0,0,0,0,0,0,2.4027,2.4042,2.4168,2.4112,2.4128,2.4162,2.4195,2.42,2.4222,2.426,2.4266,2.4232,2.4299,2.4311,2.4376,2.4408,2.4355,2.436,2.4548,2.4551,2.4554,2.4577,0,0,0,0,0,0,2.4022,2.4041,2.4066,2.4113,2.4131,2.4223,2.4197,2.4203,2.4231,2.423,2.4277,2.4284,2.4299,2.4368,2.4381,2.4414,2.4364,2.4545,2.4549,2.4553,2.4573,2.458,2.4586,0,0,0,0,0,2.4016,2.4069,2.4068,2.4083,2.4164,2.4225,2.4235,2.4251,2.4234,2.4261,2.4286,2.4282,2.4402,2.4375,2.439,2.4425,2.4543,2.4548,2.4553,2.457,2.4579,2.4586,0,0,0,0,0,0,2.4025,2.4075,2.4074,2.4143,2.418,2.4224,2.4259,2.4259,2.4302,2.4299,2.4317,2.4327,2.4393,2.4415,2.4383,2.4496,2.4471,2.4479,2.4479,2.4487,2.4494,2.4488,2.4368,0,0,0,0,0,2.4035,2.4079,2.4121,2.4177,2.4196,2.4224,2.4251,2.4261,2.4299,2.4315,2.4344,2.4382,2.4429,2.4459,2.4504,2.4576,2.4588,2.4608,2.4614,2.462,2.4627,2.4669,2.4679,2.4571,2.4571,2.4571,0,0,2.4056,2.4088,2.4115,2.418,2.421,2.4257,2.4237,2.4287,2.4323,2.4322,2.4386,2.4409,2.4453,2.4522,2.4554,2.4543,2.4659,2.4626,2.4629,2.4634,2.4675,2.4686,2.4695,2.4574,2.4574,2.4573,0,0,2.4118,2.4146,2.4198,2.4229,2.4274,2.4293,2.4305,2.435,2.4366,2.443,2.4432,2.4474,2.4553,2.4585,2.4612,2.4689,2.4689,2.4703,2.4738,2.4779,2.4788,2.4795,2.4825,2.4835,2.471,2.471,2.471,0,2.4139,2.4209,2.4225,2.4276,2.4305,2.4308,2.4361,2.439,2.4447,2.4468,2.4454,2.4556,2.4585,2.4663,2.4683,2.4703,2.472,2.4698,2.4785,2.4793,2.48,2.4829,2.484,2.4712,2.4711,2.4711,2.4711,0,2.4233,2.4282,2.4318,2.4375,2.4408,2.446,2.4485,2.4517,2.4524,2.4544,2.4611,2.4647,2.47,2.4719,2.4725,2.4799,2.4791,2.4781,2.4756,2.4812,2.4839,2.485,2.4714,2.4713,2.4713,2.4712,0,0,2.4303,2.4369,2.4382,2.4409,2.446,2.4499,2.4551,2.4604,2.4632,2.4672,2.4718,2.4786,2.4778,2.4808,2.4819,2.4855,2.4917,2.4841,2.4842,2.4855,2.5003,2.5012,2.5024,2.4916,2.4918,2.492,2.5,0,2.4372,2.4466,2.4483,2.4565,2.4612,2.4616,2.4663,2.47,2.4721,2.4764,2.4788,2.4837,2.4821,2.4839,2.4875,2.4902,2.4947,2.4896,2.4961,2.4963,2.4951,2.5038,2.5047,2.512,2.5011,2.5012,2.5014,0,2.4466,2.4509,2.4597,2.4644,2.4664,2.4705,2.4756,2.4797,2.484,2.4853,2.4888,2.4895,2.4952,2.4924,2.5003,2.4968,2.4996,2.5013,2.5016,2.5024,2.4993,2.505,2.5144,2.5156,2.503,2.5029,2.5028,0,2.4511,2.4591,2.4655,2.4677,2.4733,2.4762,2.4787,2.4828,2.486,2.4904,2.4925,2.4975,2.5003,2.5042,2.5064,2.5041,2.5142,2.5115,2.5156,2.5156,2.5178,2.5177,2.528,2.5193,2.5193,2.5192,2.5192,0,2.4588,2.4642,2.4676,2.4715,2.4776,2.4795,2.4856,2.488,2.4917,2.4962,2.4968,2.501,2.5034,2.508,2.5097,2.5162,2.5173,2.5187,2.5191,2.5187,2.5186,2.5207,2.5203,2.5195,2.5195,2.5194,2.5194,0,2.4649,2.4674,2.4744,2.4791,2.4805,2.4848,2.4889,2.4928,2.495,2.5007,2.5021,2.5055,2.511,2.5135,2.5202,2.5213,2.5288,2.5287,2.5273,2.5275,2.5315,2.5312,2.5437,2.5455,2.5354,2.5355,2.5356,0,2.4697,2.4739,2.4792,2.4822,2.4848,2.4897,2.493,2.4951,2.4984,2.5038,2.5071,2.5126,2.5171,2.5259,2.529,2.5342,2.5344,2.5384,2.5352,2.5348,2.5347,2.5346,2.5351,2.5391,2.5392,2.5392,2.5393,0,2.4781,2.4792,2.4838,2.489,2.4929,2.497,2.5011,2.5036,2.5064,2.5101,2.5158,2.5193,2.5263,2.5318,2.5373,2.5399,2.5402,2.5403,2.5416,2.5413,2.5405,2.5412,2.5291,2.54,2.5399,2.5399,2.5399,2.5398,2.4839,2.4877,2.4921,2.4973,2.5006,2.5045,2.5085,2.5112,2.5159,2.5218,2.5227,2.5288,2.5332,2.5406,2.5434,2.5483,2.5473,2.5491,2.5496,2.55,2.5504,2.5395,2.5493,2.5492,2.5492,2.5492,2.5492,0,2.4925,2.4954,2.5001,2.5059,2.5101,2.5099,2.5145,2.518,2.5234,2.5274,2.5319,2.5386,2.544,2.5476,2.5531,2.5563,2.5566,2.5577,2.5576,2.5583,2.5508,2.5493,2.5574,2.5574,2.5574,2.5574,2.5574,2.5574,2.4975,2.504,2.5057,2.5139,2.5168,2.5228,2.5255,2.5291,2.5324,2.5398,2.5443,2.5466,2.5506,2.5564,2.5615,2.5624,2.5645,2.5657,2.5666,2.5596,2.5588,2.5579,2.5565,2.5661,2.5661,2.5737,2.5738,2.5739]}]]